Wind_Speed
13 12 10 9 7 9 11 8 8 10 10 8 7 7 6 7 7 7 9 9 8 8 8 9 10 11 10 9 8 9 9 9 9 8 8 8 6 6 7 5 4 4 4 6 6 7 7 8 9
12 11 10 7 5 6 11 9 8 8 8 10 7 7 6 5 6 4 7 8 7 5 6 7 8 10 10 10 11 11 10 10 10 11 11 11 10 9 8 6 6 4 3 3 3 3 3 4 5
11 11 8 6 4 5 8 11 8 7 6 5 6 8 7 4 4 5 4 5 4 5 6 6 6 6 7 8 8 8 9 10 10 10 10 10 9 8 7 6 4 3 3 2 1 1 2 3 4
9 9 8 5 3 4 6 8 8 7 5 4 4 5 3 4 4 5 4 4 4 4 4 5 5 6 6 5 5 5 5 5 5 5 5 5 5 4 5 4 3 2 1 0 1 3 4 5 7
5 6 6 5 5 5 4 5 6 6 7 4 3 2 2 1 1 2 3 5 5 5 4 4 4 5 6 6 5 5 4 4 5 5 5 5 5 4 3 4 3 2 2 1 1 3 4 5 5
4 4 4 3 3 5 5 5 4 4 5 5 4 2 2 1 1 2 1 3 2 3 4 5 6 5 5 5 6 6 7 7 6 5 5 5 5 5 5 3 1 3 3 2 1 1 2 3 5
5 2 1 2 2 3 4 5 5 4 5 4 3 2 2 1 0 1 2 2 2 2 2 3 4 4 4 5 6 6 6 5 6 5 5 4 4 3 2 1 1 3 2 2 2 2 2 3 4
8 5 2 3 3 4 4 6 7 6 5 6 4 3 1 2 3 3 4 4 4 4 4 4 4 4 5 6 6 6 7 7 7 7 7 5 4 2 3 4 3 4 3 2 1 3 4 5 7
11 8 6 6 7 8 7 6 8 8 7 8 7 7 6 5 5 5 6 7 8 6 5 5 5 6 6 7 7 8 8 8 9 8 6 6 5 6 8 6 4 4 1 1 2 2 3 4 5
12 11 10 9 9 9 10 9 9 9 9 9 10 9 9 9 9 8 7 9 9 9 8 7 7 8 9 9 9 8 9 9 8 8 9 8 8 9 7 7 6 6 5 5 4 5 6 8 9
15 15 14 12 11 11 12 10 11 11 10 11 11 10 11 11 12 12 11 11 10 10 9 8 8 8 9 10 11 11 11 11 11 12 11 10 10 10 10 8 8 9 10 10 12 13 14 14 15
17 17 16 15 15 13 13 13 11 11 12 14 13 12 13 13 14 14 14 13 12 11 11 11 10 10 10 11 12 13 15 15 15 15 13 12 12 11 11 12 14 14 15 15 16 18 21 20 21
18 18 17 17 17 16 14 14 15 14 14 15 15 14 14 15 15 16 16 15 14 13 13 13 13 13 13 14 14 15 17 17 18 16 15 14 14 15 16 16 18 18 18 18 18 19 20 23 23
18 18 17 18 18 18 17 16 16 18 17 15 16 18 17 16 16 17 17 17 16 15 15 15 15 15 16 15 15 16 16 17 18 18 17 16 18 18 17 17 18 18 18 19 22 21 22 23 22
16 17 17 19 20 20 19 16 19 18 18 16 18 18 20 19 19 19 18 18 17 17 17 18 19 18 18 17 17 18 18 17 18 18 18 19 21 20 20 22 23 24 25 26 27 25 25 25 26
19 20 18 19 18 17 18 14 20 21 21 21 21 22 22 21 20 20 21 20 20 19 20 20 21 21 21 20 20 20 22 21 20 21 22 23 25 26 27 27 27 28 29 29 30 31 34 34 34
23 22 20 19 19 21 22 17 23 23 25 24 24 24 23 23 23 24 23 22 22 22 22 22 23 24 24 24 23 22 22 22 22 23 25 27 29 30 30 31 32 32 30 30 32 33 34 34 37
27 25 23 22 23 26 25 21 26 27 27 27 25 26 25 25 26 27 25 25 25 24 24 25 26 27 28 28 27 26 26 26 27 26 28 29 31 34 36 34 34 35 35 35 36 39 41 41 42
30 29 27 26 29 30 28 26 28 32 31 31 31 30 28 27 30 28 27 28 28 27 28 27 27 28 29 30 29 29 29 29 30 31 31 33 34 35 35 35 35 36 36 37 39 41 45 45 45
33 33 31 31 33 37 31 31 29 35 36 34 36 36 32 33 31 32 31 32 31 32 31 31 31 30 31 31 31 30 30 30 31 32 33 34 36 38 39 39 37 37 38 41 42 43 44 45 47
36 36 35 36 36 39 39 42 37 34 35 34 32 33 36 34 34 34 34 35 35 35 36 36 35 33 32 34 34 33 31 31 33 34 35 37 38 40 41 41 40 40 42 43 44 44 46 49 53
38 37 39 39 41 42 42 54 44 37 32 33 32 33 35 35 33 34 33 34 36 38 40 39 37 36 36 36 36 36 35 35 35 36 36 37 40 41 42 42 42 43 44 45 46 47 51 55 56
40 39 40 41 42 45 49 55 51 40 32 24 30 35 34 34 33 33 34 35 39 40 40 40 40 37 39 39 38 38 37 37 37 38 38 40 41 42 42 43 45 46 46 47 49 51 53 56 59
41 42 41 42 44 56 52 54 55 48 39 29 27 31 33 33 33 33 35 36 37 39 40 40 40 40 40 39 39 39 38 39 39 40 42 43 43 44 45 46 48 48 49 50 51 54 56 59 61
42 42 44 48 54 59 58 62 51 48 33 32 32 31 33 32 33 35 37 39 40 42 41 41 42 42 42 41 40 40 41 41 42 43 43 44 45 46 47 49 50 51 52 53 55 57 60 63 65
42 44 46 53 57 62 64 56 46 39 30 26 31 31 32 34 36 37 39 41 42 43 44 42 42 43 41 41 41 42 42 43 45 45 45 46 48 48 50 51 53 54 55 57 59 61 64 66 69
50 53 52 51 60 63 59 50 41 35 31 25 23 26 28 32 34 37 38 41 42 40 43 43 42 43 44 43 44 44 44 45 46 47 47 49 50 51 53 54 55 57 59 61 63 65 67 69 72
62 61 61 61 61 64 59 46 37 35 35 28 23 26 28 30 33 38 41 43 44 43 41 44 45 45 46 47 46 45 45 47 47 48 49 51 53 54 55 56 58 59 62 65 66 67 70 73 72
54 55 56 56 57 59 56 42 40 41 41 38 30 28 29 30 31 34 37 41 46 46 44 43 43 43 44 46 47 47 48 49 51 51 53 55 56 57 59 60 61 64 66 67 68 70 73 73 73
52 51 50 52 51 50 49 41 39 45 40 42 36 31 37 38 35 35 37 38 40 42 42 45 46 47 47 48 48 50 52 53 54 55 56 58 58 59 60 62 65 67 68 68 70 72 73 73 75
Wind_Direction
77 82 86 84 78 80 77 66 64 64 68 73 77 79 87 93 91 92 94 105 114 118 122 120 122 121 124 133 153 178 187 190 184 187 169 166 165 147 175 180 181 197 209 243 252 255 264 277 284
81 88 96 99 78 72 79 68 59 66 65 67 70 70 75 71 88 88 92 90 94 110 127 128 128 127 127 125 121 122 136 150 166 169 180 178 180 169 181 174 191 184 196 223 250 262 274 288 300
88 88 92 108 85 56 68 81 70 71 77 75 71 69 53 50 76 91 98 109 114 118 114 113 114 121 130 137 136 136 134 133 139 143 147 145 146 139 140 150 145 157 151 165 177 324 345 331 346
97 88 85 83 76 70 58 68 68 66 64 80 79 76 77 56 48 77 83 108 125 126 121 117 116 115 117 119 126 142 143 144 142 145 131 125 120 134 145 143 154 152 180 291 343 347 331 328 340
120 104 88 71 41 40 32 43 73 70 91 90 94 115 144 125 344 36 86 89 95 104 121 132 140 142 138 135 137 138 137 137 136 135 128 126 132 140 157 162 151 167 193 217 10 332 331 332 329
160 126 109 80 34 39 27 1 22 18 45 75 94 93 93 103 220 245 165 134 128 124 123 124 131 136 142 153 158 162 168 176 180 176 181 187 185 197 209 216 238 263 265 272 272 301 345 352 344
192 193 113 74 358 360 351 349 343 333 335 11 38 90 107 74 41 243 231 198 208 229 237 211 189 182 178 176 176 182 183 184 190 198 202 211 213 223 255 265 242 273 326 351 313 316 321 323 341
209 218 275 302 316 317 315 323 326 328 294 304 316 317 319 238 246 231 237 226 230 255 266 277 279 267 255 248 243 243 240 230 229 230 232 233 234 248 245 239 206 240 243 233 313 53 53 37 22
225 228 234 269 302 314 304 305 312 316 294 276 284 290 283 279 274 264 250 243 246 255 256 267 269 268 266 261 256 252 255 257 254 252 247 242 223 221 222 223 220 219 190 92 106 77 64 17 349
240 247 251 258 282 304 297 297 303 309 302 270 267 282 278 274 274 279 272 263 258 259 263 263 264 263 264 266 270 271 268 262 255 237 230 225 219 226 217 196 191 198 209 224 240 230 249 271 287
242 249 258 268 276 286 286 287 295 303 292 281 274 280 278 275 277 276 277 275 271 270 266 255 259 263 270 276 276 276 267 257 248 245 238 225 222 215 210 216 232 243 254 266 273 283 291 295 297
244 252 261 269 275 277 277 277 283 295 280 279 276 275 276 276 272 274 276 275 268 265 260 257 263 270 277 278 274 267 259 256 248 245 234 224 223 227 240 247 253 257 262 265 282 293 298 303 306
248 256 263 269 272 274 273 273 282 286 286 287 286 281 272 271 274 272 272 270 265 259 256 261 269 275 278 280 274 262 263 260 249 241 238 240 243 241 246 254 259 263 271 278 291 296 296 295 297
249 257 263 268 271 273 272 272 280 278 286 287 281 280 278 273 272 267 265 266 264 258 258 263 267 270 276 280 274 269 266 266 259 251 256 257 256 257 261 270 275 279 286 290 295 297 292 296 299
249 254 260 267 270 272 275 282 278 284 282 281 282 277 274 275 273 266 264 263 262 261 262 263 266 270 276 278 274 272 269 272 271 275 271 266 267 272 272 276 278 285 291 291 288 293 296 298 300
252 255 260 270 274 274 278 283 280 284 281 282 284 283 277 275 271 263 260 256 257 259 262 265 269 274 278 276 273 272 273 271 272 272 280 275 276 277 276 277 278 287 295 297 295 295 296 296 298
252 257 266 274 277 274 276 281 283 286 287 285 285 284 279 270 269 264 259 254 254 257 261 265 268 270 273 274 270 268 267 267 267 271 273 275 277 281 282 282 282 290 294 295 297 300 300 297 298
257 264 268 275 276 276 275 275 281 287 287 286 286 281 276 272 269 265 263 260 259 260 262 264 268 269 270 270 271 268 265 267 268 266 267 271 274 279 281 279 281 286 287 290 295 294 294 294 293
263 266 269 275 275 275 278 275 282 285 291 287 283 281 279 278 272 268 261 260 260 260 261 264 268 271 270 269 269 267 265 265 268 270 270 270 271 272 271 270 274 281 283 288 290 290 290 292 294
266 269 271 272 275 277 278 278 277 289 292 287 280 276 275 270 270 269 262 259 260 262 266 268 267 270 273 271 268 268 266 267 267 271 273 273 275 274 273 274 278 280 283 286 288 288 290 293 297
265 269 272 273 275 279 283 275 279 285 293 290 282 274 268 265 263 261 259 259 261 264 266 267 269 271 273 274 271 269 268 266 267 269 272 273 273 271 270 273 277 280 282 285 288 291 293 295 298
266 269 272 275 277 278 280 280 278 287 287 288 288 270 262 262 263 261 258 260 262 262 263 267 268 270 272 274 271 267 266 266 268 270 271 271 270 269 269 271 274 278 281 285 289 292 293 295 300
268 269 271 274 276 277 276 283 285 283 280 284 280 275 266 263 258 257 260 262 265 267 267 267 269 270 268 268 268 266 265 267 269 269 270 269 269 267 267 270 274 279 282 285 289 292 294 297 299
268 270 271 273 276 274 279 283 282 287 284 276 280 272 269 263 258 261 264 267 268 269 271 269 267 265 266 266 265 263 265 267 268 268 268 268 267 266 268 272 277 280 283 287 290 292 294 296 297
267 269 271 269 269 275 280 281 282 291 290 274 271 268 265 265 263 263 265 267 268 270 269 271 270 267 266 264 263 264 265 267 268 269 268 267 266 267 271 275 278 281 285 288 291 293 294 296 298
263 263 266 271 277 278 279 278 284 286 291 277 264 260 263 264 263 263 264 266 267 268 268 270 269 265 262 261 261 263 265 265 266 267 266 265 266 270 273 276 278 281 286 290 292 294 295 296 297
262 262 265 269 272 275 279 280 276 280 284 279 272 264 260 262 266 264 266 268 268 271 266 264 265 264 262 262 263 265 264 264 263 263 263 265 268 271 274 277 279 284 287 290 292 294 296 296 296
260 264 266 266 269 273 274 273 270 277 271 268 274 270 266 266 266 264 267 269 267 269 270 265 265 265 261 262 264 263 263 263 263 262 263 266 270 273 275 278 282 285 288 291 292 294 295 295 296
261 263 263 263 263 266 269 266 272 274 273 272 274 271 271 265 259 263 264 264 264 264 264 263 264 264 261 261 261 260 260 260 262 263 267 269 272 274 277 281 284 287 290 292 294 294 295 296 297
252 257 258 257 260 265 269 258 276 275 273 277 278 274 280 273 267 266 268 267 267 265 265 264 262 262 262 260 258 258 260 262 264 267 270 272 273 275 278 281 285 287 289 291 294 295 296 297 298
Height
5871 5871 5872 5873 5875 5873 5871 5871 5869 5867 5867 5867 5867 5867 5867 5867 5867 5869 5867 5866 5866 5866 5866 5865 5864 5864 5865 5865 5865 5866 5867 5868 5869 5870 5871 5872 5872 5872 5874 5873 5875 5875 5876 5877 5878 5878 5878 5877 5876
5873 5873 5874 5874 5875 5874 5873 5872 5870 5868 5868 5868 5869 5868 5868 5868 5869 5868 5868 5868 5868 5869 5869 5868 5868 5867 5867 5867 5867 5867 5867 5868 5869 5869 5871 5871 5871 5871 5873 5874 5876 5875 5876 5877 5877 5877 5877 5877 5876
5875 5875 5875 5875 5874 5875 5875 5873 5872 5870 5869 5870 5870 5870 5870 5869 5869 5870 5870 5870 5870 5871 5870 5870 5869 5869 5869 5869 5869 5869 5870 5870 5871 5872 5873 5873 5873 5873 5875 5876 5876 5876 5875 5876 5877 5877 5877 5876 5875
5876 5876 5877 5876 5875 5876 5875 5875 5873 5871 5870 5871 5871 5872 5872 5872 5871 5871 5871 5870 5871 5871 5870 5871 5871 5871 5871 5871 5872 5872 5873 5873 5874 5875 5875 5876 5876 5876 5877 5876 5877 5876 5877 5877 5876 5876 5877 5877 5876
5876 5877 5876 5876 5876 5876 5875 5875 5874 5874 5873 5872 5872 5873 5873 5873 5872 5872 5873 5872 5872 5871 5871 5871 5871 5871 5872 5872 5872 5873 5873 5874 5875 5875 5876 5875 5875 5876 5876 5875 5874 5875 5876 5876 5875 5876 5876 5875 5874
5876 5878 5878 5876 5876 5876 5875 5874 5874 5873 5873 5873 5873 5873 5874 5873 5873 5873 5873 5873 5873 5873 5872 5872 5872 5871 5872 5872 5872 5872 5872 5873 5874 5874 5874 5874 5875 5875 5875 5875 5874 5874 5873 5872 5872 5872 5872 5872 5872
5877 5877 5878 5877 5877 5877 5876 5874 5874 5873 5872 5873 5874 5874 5875 5874 5874 5874 5873 5873 5873 5873 5873 5872 5872 5872 5872 5872 5872 5872 5872 5873 5873 5873 5873 5874 5874 5874 5874 5873 5872 5872 5873 5872 5872 5871 5871 5870 5870
5876 5877 5876 5876 5876 5876 5876 5875 5873 5873 5873 5873 5873 5874 5874 5874 5874 5874 5874 5874 5873 5873 5873 5872 5872 5872 5872 5872 5873 5873 5873 5873 5873 5873 5873 5874 5874 5874 5873 5871 5872 5871 5872 5872 5872 5872 5871 5871 5870
5875 5877 5876 5875 5874 5874 5874 5874 5873 5873 5872 5872 5872 5872 5873 5873 5873 5873 5873 5872 5872 5872 5872 5872 5871 5871 5871 5871 5871 5871 5872 5872 5872 5872 5873 5872 5872 5871 5870 5871 5872 5872 5872 5872 5872 5871 5871 5871 5870
5873 5875 5875 5875 5874 5873 5873 5873 5872 5872 5871 5871 5871 5871 5871 5871 5872 5871 5871 5871 5871 5871 5871 5871 5871 5871 5870 5871 5871 5871 5871 5871 5872 5871 5871 5871 5871 5871 5871 5872 5872 5872 5872 5871 5870 5870 5869 5868 5867
5871 5872 5872 5872 5873 5872 5871 5871 5870 5870 5869 5869 5870 5870 5869 5869 5869 5869 5870 5869 5869 5869 5869 5870 5870 5870 5870 5870 5870 5870 5870 5870 5870 5870 5870 5870 5870 5870 5870 5871 5870 5870 5870 5868 5867 5867 5866 5865 5865
5868 5868 5869 5869 5870 5870 5870 5869 5869 5868 5868 5867 5867 5868 5868 5867 5867 5867 5867 5867 5867 5867 5867 5867 5868 5868 5868 5868 5869 5869 5869 5869 5869 5868 5869 5869 5869 5869 5868 5868 5867 5867 5866 5865 5865 5864 5863 5862 5860
5865 5866 5866 5866 5866 5867 5867 5867 5867 5866 5865 5865 5865 5865 5865 5865 5864 5864 5864 5864 5864 5865 5865 5865 5866 5866 5866 5866 5866 5867 5867 5867 5867 5867 5867 5868 5868 5867 5867 5866 5865 5864 5864 5863 5862 5861 5860 5859 5856
5862 5862 5862 5862 5862 5862 5863 5864 5864 5863 5863 5862 5861 5861 5862 5862 5862 5861 5861 5861 5861 5861 5862 5862 5862 5863 5862 5863 5863 5863 5864 5864 5864 5865 5865 5865 5865 5864 5864 5863 5862 5861 5860 5859 5858 5856 5855 5854 5852
5858 5859 5859 5859 5859 5859 5859 5860 5859 5859 5859 5859 5858 5858 5857 5858 5858 5858 5858 5857 5858 5858 5858 5859 5859 5859 5859 5859 5859 5860 5860 5861 5861 5862 5862 5861 5861 5861 5860 5859 5858 5856 5855 5854 5852 5851 5850 5848 5846
5854 5855 5855 5855 5856 5856 5856 5858 5855 5854 5855 5855 5855 5854 5853 5853 5853 5854 5854 5854 5854 5854 5855 5855 5855 5855 5855 5855 5855 5856 5856 5857 5858 5858 5858 5857 5857 5856 5855 5854 5852 5851 5850 5848 5847 5845 5844 5842 5840
5848 5849 5851 5851 5851 5851 5851 5853 5850 5850 5850 5851 5850 5849 5849 5849 5848 5848 5849 5850 5850 5850 5850 5850 5850 5850 5850 5850 5851 5851 5852 5852 5852 5852 5852 5851 5851 5850 5849 5848 5846 5845 5844 5842 5840 5839 5837 5834 5832
5844 5845 5846 5846 5846 5844 5846 5848 5846 5845 5845 5845 5846 5844 5844 5844 5843 5843 5844 5844 5845 5845 5845 5845 5845 5845 5845 5845 5845 5846 5846 5846 5846 5846 5846 5845 5844 5843 5842 5840 5839 5838 5837 5835 5833 5831 5829 5826 5823
5838 5839 5841 5841 5838 5837 5839 5841 5841 5838 5841 5840 5839 5838 5838 5838 5836 5837 5838 5838 5838 5839 5839 5839 5839 5839 5839 5839 5839 5840 5840 5840 5839 5839 5839 5838 5837 5836 5834 5832 5831 5830 5828 5826 5824 5821 5819 5817 5814
5833 5833 5834 5834 5831 5829 5833 5833 5835 5833 5834 5835 5833 5831 5832 5830 5830 5830 5830 5830 5831 5832 5832 5833 5833 5833 5833 5833 5832 5832 5832 5832 5832 5831 5831 5830 5829 5828 5827 5825 5823 5821 5820 5817 5815 5812 5810 5807 5804
5825 5826 5826 5825 5824 5822 5821 5820 5826 5830 5828 5826 5825 5824 5823 5823 5822 5822 5823 5823 5824 5825 5825 5825 5825 5826 5826 5825 5825 5825 5825 5824 5824 5823 5823 5821 5821 5819 5818 5816 5814 5812 5810 5807 5805 5801 5799 5796 5792
5817 5817 5817 5817 5815 5814 5813 5802 5815 5821 5822 5819 5816 5813 5813 5814 5815 5815 5815 5816 5816 5816 5816 5817 5817 5817 5818 5817 5817 5817 5817 5816 5815 5815 5814 5813 5812 5810 5809 5807 5805 5802 5800 5797 5794 5791 5788 5785 5780
5810 5810 5809 5807 5807 5802 5805 5799 5799 5810 5813 5815 5809 5805 5804 5806 5807 5807 5807 5807 5807 5807 5807 5808 5809 5809 5808 5808 5808 5808 5808 5807 5807 5806 5805 5804 5802 5801 5799 5797 5795 5792 5790 5787 5784 5780 5776 5772 5768
5800 5800 5800 5799 5796 5790 5798 5795 5786 5797 5804 5805 5804 5799 5797 5797 5798 5799 5798 5798 5798 5797 5798 5798 5799 5799 5799 5799 5798 5798 5798 5798 5797 5796 5794 5793 5792 5791 5789 5787 5784 5782 5779 5775 5772 5768 5763 5758 5754
5791 5791 5790 5788 5785 5784 5784 5779 5780 5783 5790 5793 5795 5793 5790 5790 5791 5791 5790 5789 5789 5788 5788 5788 5789 5789 5789 5789 5789 5789 5788 5788 5787 5785 5784 5783 5782 5780 5779 5776 5773 5770 5767 5764 5760 5755 5750 5745 5740
5778 5780 5780 5774 5775 5776 5772 5768 5774 5776 5781 5781 5780 5782 5782 5781 5780 5781 5781 5781 5780 5779 5779 5778 5779 5778 5779 5779 5779 5778 5778 5778 5776 5775 5774 5772 5771 5770 5767 5765 5762 5759 5755 5751 5746 5742 5737 5732 5726
5768 5767 5771 5767 5767 5763 5762 5764 5764 5768 5770 5772 5773 5772 5773 5772 5771 5772 5771 5770 5770 5769 5768 5768 5768 5768 5769 5769 5768 5768 5768 5767 5765 5763 5762 5761 5760 5757 5755 5752 5749 5746 5742 5737 5733 5728 5722 5716 5710
5753 5757 5757 5756 5756 5753 5753 5751 5755 5759 5758 5763 5766 5766 5765 5764 5763 5762 5761 5759 5758 5758 5758 5758 5758 5758 5757 5758 5758 5757 5757 5755 5754 5752 5751 5750 5748 5745 5742 5739 5736 5732 5728 5723 5718 5713 5707 5701 5695
5741 5742 5741 5741 5742 5741 5742 5743 5748 5749 5749 5750 5756 5757 5756 5756 5755 5753 5751 5749 5748 5747 5747 5746 5747 5747 5747 5746 5746 5745 5744 5743 5742 5741 5740 5738 5735 5733 5730 5727 5723 5719 5714 5709 5704 5698 5691 5685 5678
5725 5728 5727 5726 5732 5734 5734 5732 5740 5734 5740 5741 5743 5745 5743 5743 5744 5743 5742 5741 5739 5739 5737 5736 5736 5736 5736 5734 5734 5733 5732 5731 5731 5729 5727 5725 5723 5720 5717 5713 5709 5703 5698 5694 5688 5682 5675 5668 5662